Tracking 20241 objects as of 29-Jan-2020
HD Live streaming from Space Station
objects crossing your sky now

PALAPA B1

Track PALAPA B1 now!
PALAPA B1 is classified as:


NORAD ID: 14134
Int'l Code: 1983-059C
Perigee: 35,801.6 km
Apogee: 35,862.6 km
Inclination: 14.3 °
Period: 1,438.1 minutes
Semi major axis: 42203 km
RCS: 1.2604 m2 (large)
Launch date: June 18, 1983
Source: Indonesia (INDO)
Launch site: AIR FORCE EASTERN TEST RANGE (AFETR)
aabbcc
Your satellite tracking list
Your tracking list is empty




NASA's NSSDC Master Catalog

Two Line Element Set (TLE):
1 14134U 83059C   20028.44167337 -.00000038 +00000-0 +00000-0 0  9997
2 14134 014.3499 348.1829 0007227 013.4237 355.2958 01.00135062097436
Source of the keplerian elements: AFSPC